Regional Weather Roundup
Issued by NWS

Home | Current Version | Previous Version | Graphics & Text | Print | Product List | Glossary On
Versions: 1 2 3 4 5 6 7 8 9 10 11 12 13 14 15 16 17 18 19 20 21 22 23 24 25 26 27
000
ASUS43 KDMX 180507
RWRIA

WEATHER ROUNDUP FOR IOWA
NATIONAL WEATHER SERVICE DES MOINES IA
1200 AM CDT FRI APR 18 2014

NOTE: "FAIR" INDICATES FEW OR NO CLOUDS BELOW 12,000 FEET WITH NO
SIGNIFICANT WEATHER AND/OR OBSTRUCTIONS TO VISIBILITY.

* - THESE STATIONS ARE NOT NWS STATIONS...THUS NOT UNDER NWS
QUALITY CONTROL.  THEY ALSO DO NOT REPORT WEATHER SUCH
AS PRECIPITATION OR FOG.

IAZ001>003-012>014-020>022-031>034-043>046-180600-
   NORTHWEST IOWA

CITY           SKY/WX    TMP DP  RH WIND       PRES   REMARKS
CARROLL *      CLOUDY    36  28  75 CALM      30.29R
CHEROKEE *     MOCLDY    36  28  75 CALM      30.29R
DENISON *      PTCLDY    37  27  65 E6        30.27S WCI  33
LE MARS *      CLOUDY    41  28  60 E9G15     30.27S
ORANGE CITY *  CLOUDY    39  28  65 E7        30.27S WCI  34
SHELDON *      CLOUDY    36  28  75 E10       30.27S WCI  28
SIOUX CITY     CLEAR     39  26  59 E7        30.26S WCI  34
SPENCER        CLEAR     30  26  85 E7        30.30R WCI  23
STORM LAKE *   CLOUDY    36  30  80 E8        30.30R WCI  29
$$

IAZ055>058-069>071-079>083-090>094-180600-
   SOUTHWEST IOWA

CITY           SKY/WX    TMP DP  RH WIND       PRES   REMARKS
ATLANTIC *     CLOUDY    32  27  80 N5        30.27S WCI  27
AUDUBON *      CLEAR     30  23  74 CALM      30.29R
CLARINDA *     CLEAR     32  28  86 CALM      30.29S
COUNCIL BLFS * CLEAR     45  25  45 SE3       30.26R
CRESTON *      CLEAR     41  30  65 E3        30.27S
HARLAN  *      CLEAR     34  25  69 CALM      30.31R
LAMONI         CLEAR     43  31  62 S6        30.27S
RED OAK *      CLEAR     36  28  75 CALM      30.27S
SHENANDOAH *   CLEAR     37  30  75 CALM      30.28S
$$

IAZ047>049-059>061-072>074-084-180600-
   CENTRAL IOWA

CITY           SKY/WX    TMP DP  RH WIND       PRES   REMARKS
AMES           CLEAR     36  30  79 E3        30.30S
ANKENY *       CLEAR     37  32  81 NE6       30.30S WCI  33
CHARITON *     PTCLDY    41  32  70 SE3       30.28R
DES MOINES     CLEAR     43  31  62 E8        30.29S
GRINNELL*      CLEAR     36  30  80 NE10      30.30S WCI  28
KNOXVILLE *    CLEAR     41  32  70 NE7       30.28S
MARSHALLTOWN   CLEAR     31  28  89 NE7       30.30S WCI  24
NEWTON *       CLEAR     36  30  80 NE7       30.30S WCI  30
PELLA *        CLEAR     37  32  81 NE3       30.30S
PERRY *          N/A     39  30  70 E6        30.29R WCI  35
$$

IAZ004>006-015-016-023>025-035-036-180600-
   NORTH CENTRAL IOWA

CITY           SKY/WX    TMP DP  RH WIND       PRES   REMARKS
ALGONA *       CLEAR     34  30  86 E5        30.31R WCI  30
CLARION *      PTCLDY    30  28  93 E8        30.31R WCI  23
ESTHERVILLE    CLEAR     28  27  96 NE6       30.29S WCI  22
FORT DODGE *   PTCLDY    30  27  86 E6        30.31R WCI  24
MASON CITY     CLEAR     25  24  96 E5        30.32F FOG     WCI  19
FOREST CITY *  FOG       27  27 100 CALM      30.30F VSB 3/4
IOWA FALLS *     N/A     32  30  93 NE5       30.32R WCI  27
$$

IAZ007>011-017>019-026>030-037>042-050>054-066-180600-
   NORTHEAST IOWA

CITY           SKY/WX    TMP DP  RH WIND       PRES   REMARKS
CEDAR RAPIDS   CLEAR     32  27  81 N7        30.30R WCI  26
CHARLES CITY * CLEAR     32  28  86 N3        30.32S
CLINTON *      PTCLDY    36  30  80 N9        30.31S WCI  29
DECORAH *      MOCLDY    32  28  86 W3        30.30S
DUBUQUE        CLEAR     35  30  82 N12       30.28S WCI  27
MONTICELLO *   CLEAR     34  30  86 N5        30.30R WCI  30
OELWEIN *      CLEAR    N/A N/A N/A N3        30.32S
WATERLOO       CLEAR     30  27  88 CALM      30.31S
$$

IAZ064-065-067-068-078-180600-
   EAST CENTRAL IOWA

CITY           SKY/WX    TMP DP  RH WIND       PRES   REMARKS
DAVENPORT      PTCLDY    36  31  82 NW8       30.30R WCI  30
IOWA CITY      CLEAR     40  33  76 N13       30.31S WCI  32
MT. PLEASANT * CLEAR     41  32  70 N7        30.29S
MUSCATINE *    CLEAR     41  32  70 NW5       30.30R
QUAD CITIES    PTCLDY    40  33  76 W3        30.28R
$$

IAZ062-063-075>077-085>089-095>099-180600-
   SOUTHEAST IOWA

CITY           SKY/WX    TMP DP  RH WIND       PRES   REMARKS
BURLINGTON     PTCLDY    41  35  79 NW6       30.28R
FAIRFIELD *    CLEAR     36  30  80 N9        30.30R WCI  29
FORT MADISON * CLEAR     45  36  70 W3        30.29S
KEOKUK *       CLEAR     43  36  75 NW6       30.28S
OSKALOOSA *      N/A     36  30  80 NE5       30.30R WCI  32
CENTERVILLE *  CLEAR     41  32  70 CALM      30.29S
OTTUMWA        CLEAR     40  30  67 NE9       30.29R WCI  34
WASHINGTON *   CLOUDY    39  32  75 N9        30.30S WCI  33
$$

ABBREVIATIONS USED IN REMARKS
   TC - TEMPERATURES IN CELSIUS
  WCI - WIND CHILL INDEX
   HX - HEAT INDEX
  VSB - VISIBILITY
$$




USA.gov is the U.S. government's official web portal to all federal, state and local government web resources and services.